When you browse on this site, cookies collect data to enhance your experience and personalize the content and advertising you see.
Visit our Privacy Policy to learn more. By continuing to use the site, you agree to this use of cookies and data.

Previsão horária em Hovanschina

Hoje, 3 Julho, Sexta-feira

Tempo Temperatura Precipitação Vento Pressão Humidade
00:00 +18°C° 0 mm 1 m/s 738 mmHg 88%
01:00 +18°C° 0 mm 1 m/s 738 mmHg 89%
02:00 +18°C° 0 mm 1 m/s 738 mmHg 89%
03:00 +16°C° 0 mm 1 m/s 738 mmHg 88%
04:00 +18°C° 0 mm 1 m/s 738 mmHg 87%
05:00 +18°C° 0 mm 2 m/s 738 mmHg 87%
06:00 +19°C° 0 mm 2 m/s 738 mmHg 86%
07:00 +21°C° 0 mm 2 m/s 739 mmHg 81%
08:00 +22°C° 0 mm 3 m/s 739 mmHg 77%
09:00 +25°C° 0 mm 3 m/s 739 mmHg 72%
10:00 +25°C° 0.3 mm 3 m/s 739 mmHg 70%
11:00 +26°C° 0.3 mm 4 m/s 739 mmHg 68%
12:00 +27°C° 0.3 mm 4 m/s 740 mmHg 66%
13:00 +27°C° 0.4 mm 4 m/s 739 mmHg 68%
14:00 +27°C° 0.4 mm 4 m/s 739 mmHg 69%
15:00 +27°C° 0.4 mm 4 m/s 739 mmHg 71%
16:00 +26°C° 0.3 mm 4 m/s 739 mmHg 74%
17:00 +26°C° 0.3 mm 3 m/s 739 mmHg 77%
18:00 +26°C° 0.3 mm 3 m/s 739 mmHg 80%
19:00 +24°C° 0.1 mm 3 m/s 739 mmHg 83%
20:00 +23°C° 0.1 mm 2 m/s 739 mmHg 86%
21:00 +21°C° 0.1 mm 2 m/s 739 mmHg 89%
22:00 +20°C° 0 mm 2 m/s 739 mmHg 89%
23:00 +20°C° 0 mm 2 m/s 739 mmHg 89%

Amanhã, 4 Julho, Sábado

Tempo Temperatura Precipitação Vento Pressão Humidade
00:00 +19°C° 0 mm 2 m/s 739 mmHg 90%
01:00 +19°C° 0 mm 2 m/s 739 mmHg 90%
02:00 +19°C° 0 mm 2 m/s 739 mmHg 90%
03:00 +18°C° 0 mm 2 m/s 739 mmHg 90%
04:00 +19°C° 0 mm 2 m/s 739 mmHg 88%
05:00 +20°C° 0 mm 2 m/s 739 mmHg 87%
06:00 +20°C° 0 mm 3 m/s 739 mmHg 86%
07:00 +22°C° 0 mm 3 m/s 739 mmHg 81%
08:00 +25°C° 0 mm 3 m/s 739 mmHg 76%
09:00 +26°C° 0 mm 3 m/s 739 mmHg 72%
10:00 +27°C° 0 mm 3 m/s 739 mmHg 68%
11:00 +28°C° 0 mm 3 m/s 739 mmHg 65%
12:00 +29°C° 0 mm 4 m/s 739 mmHg 62%
13:00 +29°C° 0.3 mm 4 m/s 739 mmHg 63%
14:00 +29°C° 0.3 mm 4 m/s 738 mmHg 64%
15:00 +29°C° 0.3 mm 4 m/s 738 mmHg 65%
16:00 +28°C° 0.6 mm 4 m/s 738 mmHg 70%
17:00 +27°C° 0.6 mm 3 m/s 738 mmHg 75%
18:00 +26°C° 0.6 mm 3 m/s 738 mmHg 81%
19:00 +25°C° 0.1 mm 3 m/s 738 mmHg 83%
20:00 +24°C° 0.1 mm 3 m/s 738 mmHg 85%
21:00 +22°C° 0.1 mm 3 m/s 738 mmHg 87%
22:00 +22°C° 0 mm 3 m/s 737 mmHg 88%
23:00 +21°C° 0 mm 3 m/s 737 mmHg 89%

Depois de amanhã, 5 Julho, Domingo

Tempo Temperatura Precipitação Vento Pressão Humidade
00:00 +21°C° 0 mm 2 m/s 737 mmHg 90%
01:00 +20°C° 0.3 mm 2 m/s 737 mmHg 91%
02:00 +20°C° 0.3 mm 3 m/s 737 mmHg 91%
03:00 +20°C° 0.3 mm 3 m/s 737 mmHg 92%
04:00 +20°C° 0.5 mm 3 m/s 737 mmHg 91%
05:00 +21°C° 0.5 mm 3 m/s 737 mmHg 91%
06:00 +21°C° 0.5 mm 3 m/s 737 mmHg 90%
07:00 +24°C° 0.3 mm 3 m/s 737 mmHg 87%
08:00 +25°C° 0.3 mm 3 m/s 737 mmHg 84%
09:00 +26°C° 0.3 mm 3 m/s 737 mmHg 80%
10:00 +27°C° 0.5 mm 4 m/s 737 mmHg 75%
11:00 +28°C° 0.5 mm 4 m/s 737 mmHg 70%
12:00 +29°C° 0.5 mm 4 m/s 737 mmHg 65%
13:00 +29°C° 0 mm 4 m/s 737 mmHg 65%
14:00 +29°C° 0 mm 4 m/s 736 mmHg 64%
15:00 +29°C° 0 mm 4 m/s 736 mmHg 64%
16:00 +29°C° 0.2 mm 4 m/s 736 mmHg 69%
17:00 +28°C° 0.2 mm 3 m/s 736 mmHg 73%
18:00 +27°C° 0.2 mm 2 m/s 736 mmHg 78%
19:00 +26°C° 0.1 mm 2 m/s 736 mmHg 80%
20:00 +24°C° 0.1 mm 2 m/s 736 mmHg 82%
21:00 +23°C° 0.1 mm 1 m/s 736 mmHg 84%
22:00 +22°C° 0.2 mm 1 m/s 736 mmHg 85%
23:00 +22°C° 0.2 mm 1 m/s 736 mmHg 86%

6 Julho, Segunda-feira

Tempo Temperatura Precipitação Vento Pressão Humidade
00:00 +21°C° 0.2 mm 1 m/s 736 mmHg 87%
01:00 +21°C° 0.8 mm 1 m/s 736 mmHg 89%
02:00 +21°C° 0.8 mm 1 m/s 736 mmHg 90%
03:00 +20°C° 0.8 mm 1 m/s 735 mmHg 91%
04:00 +21°C° 0 mm 1 m/s 736 mmHg 90%
05:00 +21°C° 0 mm 1 m/s 736 mmHg 89%
06:00 +22°C° 0 mm 1 m/s 736 mmHg 88%
07:00 +23°C° 0 mm 1 m/s 736 mmHg 83%
08:00 +25°C° 0 mm 1 m/s 736 mmHg 78%
09:00 +26°C° 0 mm 1 m/s 736 mmHg 73%
10:00 +27°C° 0 mm 1 m/s 736 mmHg 68%
11:00 +29°C° 0 mm 1 m/s 736 mmHg 63%
12:00 +30°C° 0 mm 2 m/s 736 mmHg 58%
13:00 +30°C° 0 mm 2 m/s 736 mmHg 56%
14:00 +30°C° 0 mm 2 m/s 736 mmHg 55%
15:00 +31°C° 0 mm 3 m/s 736 mmHg 54%
16:00 +30°C° 0 mm 2 m/s 736 mmHg 58%
17:00 +29°C° 0 mm 2 m/s 736 mmHg 61%
18:00 +29°C° 0 mm 2 m/s 736 mmHg 65%
19:00 +27°C° 0 mm 1 m/s 736 mmHg 68%
20:00 +25°C° 0 mm 1 m/s 736 mmHg 70%
21:00 +24°C° 0 mm 1 m/s 736 mmHg 72%
22:00 +23°C° 0 mm 1 m/s 736 mmHg 73%
23:00 +23°C° 0 mm 1 m/s 736 mmHg 73%

7 Julho, Terça-feira

Tempo Temperatura Precipitação Vento Pressão Humidade
00:00 +22°C° 0 mm 1 m/s 736 mmHg 74%
01:00 +22°C° 0 mm 1 m/s 736 mmHg 76%
02:00 +21°C° 0 mm 2 m/s 736 mmHg 78%
03:00 +20°C° 0 mm 2 m/s 736 mmHg 80%
04:00 +21°C° 0 mm 2 m/s 736 mmHg 79%
05:00 +23°C° 0 mm 2 m/s 736 mmHg 79%
06:00 +23°C° 0 mm 1 m/s 736 mmHg 78%
07:00 +25°C° 0 mm 2 m/s 736 mmHg 73%
08:00 +26°C° 0 mm 2 m/s 736 mmHg 68%
09:00 +28°C° 0 mm 2 m/s 737 mmHg 62%
10:00 +29°C° 0 mm 2 m/s 736 mmHg 60%
11:00 +30°C° 0 mm 2 m/s 736 mmHg 57%
12:00 +31°C° 0 mm 3 m/s 736 mmHg 55%
13:00 +33°C° 0 mm 3 m/s 736 mmHg 54%
14:00 +33°C° 0 mm 3 m/s 736 mmHg 54%
15:00 +33°C° 0 mm 3 m/s 736 mmHg 54%
16:00 +33°C° 0 mm 3 m/s 736 mmHg 58%
17:00 +31°C° 0 mm 2 m/s 736 mmHg 62%
18:00 +31°C° 0 mm 2 m/s 736 mmHg 66%
19:00 +29°C° 0 mm 3 m/s 736 mmHg 68%
20:00 +27°C° 0 mm 3 m/s 736 mmHg 70%
21:00 +26°C° 0 mm 3 m/s 736 mmHg 72%
22:00 +25°C° 0 mm 3 m/s 736 mmHg 72%
23:00 +24°C° 0 mm 3 m/s 736 mmHg 72%

8 Julho, Quarta-feira

Tempo Temperatura Precipitação Vento Pressão Humidade
00:00 +24°C° 0 mm 3 m/s 736 mmHg 71%
01:00 +22°C° 0 mm 3 m/s 736 mmHg 70%
02:00 +22°C° 0 mm 3 m/s 736 mmHg 69%
03:00 +22°C° 0 mm 3 m/s 736 mmHg 67%
04:00 +22°C° 0 mm 3 m/s 736 mmHg 68%
05:00 +22°C° 0 mm 3 m/s 736 mmHg 69%
06:00 +23°C° 0 mm 2 m/s 736 mmHg 70%
07:00 +24°C° 0 mm 3 m/s 736 mmHg 68%
08:00 +25°C° 0 mm 3 m/s 736 mmHg 65%
09:00 +27°C° 0 mm 4 m/s 736 mmHg 63%
10:00 +29°C° 0 mm 4 m/s 736 mmHg 59%
11:00 +30°C° 0 mm 5 m/s 736 mmHg 56%
12:00 +33°C° 0 mm 5 m/s 736 mmHg 53%
13:00 +34°C° 0 mm 5 m/s 736 mmHg 52%
14:00 +34°C° 0 mm 5 m/s 736 mmHg 52%
15:00 +34°C° 0 mm 5 m/s 736 mmHg 52%
16:00 +33°C° 0 mm 5 m/s 735 mmHg 56%
17:00 +32°C° 0 mm 4 m/s 735 mmHg 60%
18:00 +30°C° 0 mm 4 m/s 735 mmHg 64%
19:00 +29°C° 0 mm 4 m/s 735 mmHg 66%
20:00 +27°C° 0 mm 4 m/s 735 mmHg 68%
21:00 +26°C° 0 mm 4 m/s 735 mmHg 70%
22:00 +25°C° 0 mm 4 m/s 735 mmHg 70%
23:00 +24°C° 0 mm 3 m/s 735 mmHg 70%
Mostrar mais